UAL1738 KLAX-KLAS

Flight info

Callsign UAL1738
Flight time N/A
Altitude 29000
Route ORCKA5 MISEN RNDRZ4
Aircraft B77W/H-SDE1E2E3FGHIJ2J3J4J5M1RWXY/LB1D1

Departure

Time 2026-04-25 20:54
Airport Los Angeles International Airport (KLAX)

Arrival

Time N/A
Airport Harry Reid International Airport (KLAS)
Time Latitude Longitude Altitude Speed Heading
2026-04-25 20:31 33.94023 -118.39996 130 ft 0 kts 28°
2026-04-25 20:43 33.94015 -118.40001 127 ft 3 kts 28°
2026-04-25 20:43 33.93999 -118.40012 125 ft 3 kts 28°
2026-04-25 20:43 33.93983 -118.40022 125 ft 3 kts 28°
2026-04-25 20:44 33.93974 -118.40027 125 ft 0 kts 28°
2026-04-25 20:44 33.93977 -118.40024 125 ft 2 kts 41°
2026-04-25 20:44 33.93979 -118.40010 125 ft 0 kts 81°
2026-04-25 20:46 33.93979 -118.39992 125 ft 10 kts 91°
2026-04-25 20:46 33.93976 -118.39874 130 ft 10 kts 93°
2026-04-25 20:46 33.93938 -118.39801 128 ft 11 kts 135°
2026-04-25 20:46 33.93911 -118.39720 125 ft 11 kts 90°
2026-04-25 20:47 33.93917 -118.39627 130 ft 11 kts 83°
2026-04-25 20:47 33.93928 -118.39526 126 ft 16 kts 82°
2026-04-25 20:47 33.93947 -118.39336 128 ft 27 kts 82°
2026-04-25 20:47 33.93971 -118.39113 128 ft 27 kts 84°
2026-04-25 20:48 33.93993 -118.38889 130 ft 27 kts 83°
2026-04-25 20:48 33.94016 -118.38665 127 ft 27 kts 83°
2026-04-25 20:48 33.94039 -118.38441 127 ft 27 kts 83°
2026-04-25 20:48 33.94059 -118.38245 130 ft 16 kts 83°
2026-04-25 20:49 33.94069 -118.38149 130 ft 6 kts 83°
2026-04-25 20:49 33.94075 -118.38091 130 ft 8 kts 81°
2026-04-25 20:49 33.94078 -118.38061 129 ft 0 kts 91°
2026-04-25 20:52 33.94077 -118.38054 129 ft 7 kts 96°
2026-04-25 20:52 33.93967 -118.38080 126 ft 19 kts 268°
2026-04-25 20:52 33.93968 -118.38127 130 ft 0 kts 269°
2026-04-25 20:53 33.93968 -118.38135 130 ft 1 kts 269°
2026-04-25 20:53 33.93967 -118.38146 125 ft 0 kts 269°
2026-04-25 20:53 33.93933 -118.38489 128 ft 102 kts 262°
2026-04-25 20:54 33.93781 -118.39834 261 ft 212 kts 259°
2026-04-25 20:54 33.93602 -118.41770 1689 ft 239 kts 260°
2026-04-25 20:54 33.93403 -118.43723 3541 ft 234 kts 261°
2026-04-25 20:54 33.93197 -118.45740 4402 ft 249 kts 261°
2026-04-25 20:55 33.92771 -118.47792 4952 ft 254 kts 249°
2026-04-25 20:55 33.92125 -118.49743 5307 ft 251 kts 247°
2026-04-25 20:55 33.91444 -118.51681 6266 ft 250 kts 248°
2026-04-25 20:55 33.90791 -118.53566 7345 ft 245 kts 248°
2026-04-25 20:56 33.90099 -118.55530 8085 ft 257 kts 246°
2026-04-25 20:56 33.89384 -118.57496 8956 ft 264 kts 246°
2026-04-25 20:56 33.88630 -118.59533 9896 ft 269 kts 245°
2026-04-25 20:56 33.87843 -118.61579 10864 ft 269 kts 243°
2026-04-25 20:57 33.87016 -118.63567 11943 ft 264 kts 240°
2026-04-25 20:57 33.86134 -118.65509 12698 ft 264 kts 239°
2026-04-25 20:57 33.85227 -118.67436 13018 ft 266 kts 239°
2026-04-25 20:57 33.84327 -118.69396 12999 ft 268 kts 240°
2026-04-25 20:58 33.83454 -118.71373 12998 ft 267 kts 240°
2026-04-25 20:58 33.82519 -118.73274 12981 ft 262 kts 227°
2026-04-25 20:58 33.81052 -118.74566 13005 ft 267 kts 207°
2026-04-25 20:58 33.79268 -118.75279 13013 ft 274 kts 195°
2026-04-25 20:59 33.77340 -118.75441 12997 ft 284 kts 181°
2026-04-25 20:59 33.75394 -118.74916 12984 ft 291 kts 164°
2026-04-25 20:59 33.73663 -118.73609 12988 ft 300 kts 144°
2026-04-25 20:59 33.72391 -118.71573 12986 ft 314 kts 122°
2026-04-25 21:00 33.71794 -118.69001 13001 ft 332 kts 99°
2026-04-25 21:00 33.71773 -118.68077 13023 ft 348 kts 92°
2026-04-25 21:00 33.72392 -118.59577 13703 ft 401 kts 102°
2026-04-25 21:01 33.72510 -118.56153 14283 ft 424 kts 78°
2026-04-25 21:01 33.73791 -118.52934 15340 ft 433 kts 53°
2026-04-25 21:01 33.75986 -118.50474 16414 ft 435 kts 30°
2026-04-25 21:01 33.78736 -118.49126 17396 ft 433 kts
2026-04-25 21:02 33.81724 -118.48895 18344 ft 431 kts 354°
2026-04-25 21:02 33.84746 -118.48870 19070 ft 441 kts
2026-04-25 21:02 33.87784 -118.48032 19710 ft 458 kts 19°
2026-04-25 21:02 33.90642 -118.46242 20489 ft 468 kts 32°
2026-04-25 21:03 33.93148 -118.43689 21286 ft 476 kts 47°
2026-04-25 21:03 33.95185 -118.40524 22022 ft 483 kts 59°
2026-04-25 21:03 33.96881 -118.37012 22680 ft 488 kts 60°
2026-04-25 21:03 33.98729 -118.33530 23312 ft 499 kts 57°
2026-04-25 21:04 34.00721 -118.30067 23975 ft 505 kts 56°
2026-04-25 21:04 34.02738 -118.26598 24688 ft 508 kts 56°
2026-04-25 21:04 34.04751 -118.23087 25394 ft 511 kts 56°
2026-04-25 21:04 34.06765 -118.19536 26031 ft 516 kts 57°
2026-04-25 21:05 34.08799 -118.15929 26607 ft 521 kts 57°
2026-04-25 21:05 34.10845 -118.12302 27181 ft 527 kts 56°
2026-04-25 21:05 34.12915 -118.08633 27797 ft 531 kts 56°
2026-04-25 21:05 34.15001 -118.04936 28416 ft 534 kts 56°
2026-04-25 21:06 34.17101 -118.01210 28978 ft 539 kts 56°
2026-04-25 21:06 34.21351 -117.93653 28941 ft 543 kts 56°